Flag for South Africa Weather past 2 weeks in Vereeniging, South Africa

Now
70 °F

Mild.


Feels Like: 70 °F
Forecast: 58 / 85 °F
Wind: N/A

Location: Springs

Current Time: Dec 29, 2014 at 12:58:03 PM

Latest Report: Dec 29, 2014 at 12:00 PM


Visibility: N/A

Pressure: 30.15 "Hg

Humidity: 60%

Dew point: 55 °F

Location of VereenigingLocation

Historic Weather in Vereeniging — Graph

°F

Vereeniging temperature yesterday

Maximum temperature yesterday: 72 °F (at 11:00 AM)
Minimum temperature yesterday: 63 °F (at 12:00 AM)
Average temperature yesterday: 67 °F

Past Weeks' High & Low Weather Summary

 TemperatureHumidityPressure
High84 °F (Dec 20, 4:00 PM)94% (Dec 20, 5:00 AM)30.24 "Hg (Dec 20, 5:00 AM)
Low55 °F (Dec 17, 4:00 AM)26% (Dec 21, 2:00 PM)30.01 "Hg (Dec 26, 3:00 PM)
Average67 °F72%30.13 "Hg
* Reported Dec 14 11:00 AM — Dec 29 11:00 AM, Vereeniging, Weather by CustomWeather, © 2014

Note: Actual official high and low records may vary slightly from our data, if they occured in-between our weather recording intervals... More about our weather records

Advertising

Vereeniging weather history for previous 24 hours

 ConditionsComfort  
Time TempWeatherWind HumidityBarometerVisibility
11:00 AM
Dec 29
68 °FMild.N/A64%30.15 "HgN/A
10:00 AM66 °FMild.N/A68%30.18 "HgN/A
9:00 AM64 °FMild.N/A68%30.18 "HgN/A
8:00 AM61 °FCool.N/A77%30.15 "HgN/A
7:00 AM59 °FCool.N/A88%30.15 "HgN/A
6:00 AM59 °FCool.N/A88%30.15 "HgN/A
5:00 AM59 °FCool.N/A88%30.12 "HgN/A
4:00 AM61 °FCool.N/A83%30.09 "HgN/A
3:00 AM61 °FCool.N/A88%30.09 "HgN/A
1:00 AM63 °FMild.N/A88%30.09 "HgN/A
12:00 AM63 °FMild.N/A88%30.09 "HgN/A
11:00 PM
Dec 28
64 °FMild.N/A83%30.12 "HgN/A
10:00 PM64 °FMild.N/A88%30.09 "HgN/A
9:00 PM66 °FMild.N/A78%30.09 "HgN/A
8:00 PM66 °FMild.N/A83%30.07 "HgN/A
7:00 PM68 °FMild.N/A83%30.04 "HgN/A
6:00 PM68 °FMild.N/A83%30.04 "HgN/A
5:00 PM68 °FMild.N/A83%30.01 "HgN/A
4:00 PM68 °FMild.N/A78%30.01 "HgN/A
3:00 PM70 °FMild.N/A73%30.01 "HgN/A
2:00 PM70 °FMild.N/A69%30.04 "HgN/A
1:00 PM72 °FMild.N/A78%30.04 "HgN/A
12:00 PM70 °FMild.N/A78%30.04 "HgN/A
Weather by CustomWeather, © 2014

See weather overviewHow to use our weather pages